Location: Praha
(50.0830°N, 14.4670°E)
Time: 18:50:04
(UTC+02:00)

ISS - Visible Passes

Search period start: 23 May 2018 00:00
Search period end: 02 June 2018 00:00
Orbit: 402 x 407 km, 51.6° (Epoch: 24 May)

Date Brightness Start Highest point End Pass type
(mag) Time Alt. Az. Time Alt. Az. Time Alt. Az.
23 May -3.4 00:38:12 10° W 00:41:28 64° N 00:44:43 10° E visible
23 May -4.0 02:14:46 10° WNW 02:18:02 73° SSW 02:21:17 10° ESE visible
23 May -2.4 03:51:48 10° W 03:54:08 18° SW 03:56:26 10° S visible
23 May -3.8 22:09:32 10° SW 22:12:44 54° SSE 22:15:57 10° ENE visible
23 May -3.5 23:45:58 10° W 23:49:14 66° N 23:52:29 10° ENE visible
24 May -3.9 01:22:35 10° WNW 01:25:52 85° NNE 01:27:54 21° ESE visible
24 May -2.0 02:59:16 10° W 03:00:18 17° W 03:00:18 17° W visible
24 May -3.7 22:53:43 10° W 22:57:00 76° N 23:00:16 10° ENE visible
25 May -3.6 00:30:22 10° WNW 00:33:38 71° N 00:35:43 20° E visible
25 May -2.1 02:06:56 10° W 02:08:18 22° W 02:08:18 22° W visible
25 May -3.9 22:01:29 10° WSW 22:04:47 86° SSE 22:08:03 10° ENE visible
25 May -3.4 23:38:07 10° W 23:41:23 64° N 23:44:37 10° E visible
26 May -3.4 01:14:40 10° WNW 01:17:13 48° W 01:17:13 48° W visible
26 May -3.4 22:45:51 10° W 22:49:06 64° N 22:52:22 10° E visible
27 May -4.0 00:22:26 10° WNW 00:25:43 87° SSW 00:26:24 53° ESE visible
27 May -3.5 21:53:33 10° W 21:56:49 71° N 22:00:06 10° ENE visible
27 May -3.7 23:30:11 10° WNW 23:33:28 75° NNE 23:35:40 19° E visible
28 May -2.1 01:06:46 10° W 01:08:17 22° W 01:08:17 22° W visible
28 May -3.5 22:37:55 10° WNW 22:41:11 66° N 22:44:26 10° E visible
29 May -3.8 00:14:27 10° WNW 00:17:36 56° SSW 00:17:36 56° SSW visible
29 May -3.4 21:45:36 10° W 21:48:52 64° N 21:52:07 10° E visible
29 May -4.0 23:22:10 10° WNW 23:25:27 79° SSW 23:26:58 29° ESE visible
30 May -1.4 00:59:03 10° W 00:59:36 13° W 00:59:36 13° W visible
30 May -3.8 22:29:53 10° WNW 22:33:10 80° NNE 22:36:21 11° E visible
31 May -2.7 00:06:31 10° W 00:08:59 30° SW 00:08:59 30° SW visible
31 May -3.5 21:37:35 10° WNW 21:40:51 68° N 21:44:07 10° E visible
31 May -3.5 23:14:08 10° WNW 23:17:19 48° SSW 23:18:23 33° SSE visible
01 Jun -3.8 22:21:48 10° WNW 22:25:03 71° SSW 22:27:49 14° ESE visible
